CUTE-1 (CO-55) 1 27844U 03031E 26119.56554426 .00000333 00000+0 16331-3 0 9993 2 27844 98.6755 128.7341 0008924 333.6679 26.4045 14.24304800184755 CUBESAT XI-IV (CO-57) 1 27848U 03031J 26119.95139711 .00000276 00000+0 14042-3 0 9999 2 27848 98.6786 128.8667 0009185 351.7833 8.3194 14.23594310184512 CUBESAT XI-V 1 28895U 05043F 26119.41107853 .00001580 00000+0 25690-3 0 9990 2 28895 98.2927 274.0282 0014037 5.7817 354.3549 14.72500443 94577 CUTE-1.7+APD II (CO-65) 1 32785U 08021C 26119.91511564 .00005319 00000+0 34048-3 0 9996 2 32785 97.8249 100.3557 0008775 181.4705 178.6499 15.08987301977919 CANX-2 1 32790U 08021H 26119.89991940 .00004572 00000+0 32418-3 0 9998 2 32790 97.8601 98.7614 0009767 200.1753 159.9089 15.05262070977547 SEEDS II (CO-66) 1 32791U 08021J 26119.53678457 .00018228 00000+0 60903-3 0 9998 2 32791 97.7522 115.1790 0005058 109.8166 250.3620 15.31067463979840 SWISSCUBE 1 35932U 09051B 26119.72753025 .00001189 00000+0 24488-3 0 9994 2 35932 98.4066 26.7688 0007167 14.8038 345.3371 14.62385028882079 BEESAT-1 1 35933U 09051C 26119.98582618 .00000972 00000+0 20520-3 0 9993 2 35933 98.3995 26.7672 0005934 29.4584 330.6950 14.61639197882147 ITUPSAT1 1 35935U 09051E 26119.66056569 .00000915 00000+0 19914-3 0 9993 2 35935 98.4081 25.6797 0008312 37.1625 323.0149 14.60365149881650 TISAT 1 1 36799U 10035E 26119.28619030 .00017897 00000+0 62151-3 0 9990 2 36799 98.0686 61.5820 0004496 76.1873 283.9866 15.29828690860220 AEROCUBE 4.5A 1 38767U 12048K 26119.94910901 .00162172 00000+0 10905-2 0 9993 2 38767 64.6324 200.0907 0023264 215.3885 144.5724 15.74077050365024 STRAND-1 1 39090U 13009E 26119.45953906 .00000321 00000+0 12247-3 0 9998 2 39090 98.3914 300.8957 0009054 24.5509 335.6107 14.37133735690065 BRITE-AUSTRIA 1 39091U 13009F 26119.93911044 .00000199 00000+0 82210-4 0 9990 2 39091 98.3985 300.5715 0010735 30.5547 329.6263 14.36522274690122 NEE-01 PEGASO 1 39151U 13018B 26119.35826344 .00002795 00000+0 27158-3 0 9994 2 39151 98.1148 261.9226 0011799 330.5680 29.4872 14.93418756703417 POPACS 2 1 39269U 13055E 26119.64492699 .00016502 00000+0 28244-3 0 9997 2 39269 80.9944 199.7107 0421438 349.8854 9.4060 14.90036133655984 POPACS 3 1 39270U 13055F 26119.85996848 .00012003 00000+0 29015-3 0 9996 2 39270 80.9997 281.5437 0555425 216.9795 139.1896 14.54916679631526 ZACUBE-1 (TSHEPISOSAT) 1 39417U 13066B 26119.87617661 .00005751 00000+0 44875-3 0 9999 2 39417 97.8124 81.9531 0043751 55.0204 305.5115 15.00788638673484 WNISAT-1 1 39423U 13066H 26119.89820565 .00000657 00000+0 12788-3 0 9995 2 39423 97.7137 272.4999 0163717 24.4964 336.3904 14.58003969659691 TRITON-1 1 39427U 13066M 26120.00767500 .00003273 00000+0 39539-3 0 9993 2 39427 97.8278 30.9142 0091359 32.1895 328.4850 14.81473754666958 GOMX-1 1 39430U 13066Q 26119.97200263 .00001854 00000+0 28540-3 0 9992 2 39430 97.6522 323.4724 0127669 232.0200 126.9421 14.69274777662831 CUBEBUG-2 (LO-74) 1 39440U 13066AA 26119.75968066 .00002891 00000+0 27214-3 0 9990 2 39440 97.8879 68.5580 0057636 186.4022 173.6468 14.93416196669765 NEE-02 KRYSAOR 1 39441U 13066AB 26119.81136581 .00001936 00000+0 21741-3 0 9995 2 39441 97.8873 59.3858 0065092 227.5558 132.0143 14.86443351669014 FUNCUBE-1 (AO-73) 1 39444U 13066AE 26119.85397480 .00010286 00000+0 64730-3 0 9992 2 39444 97.8250 90.3239 0037122 11.3882 348.8178 15.08818068672370 UWE-3 1 39446U 13066AG 26119.34844746 .00004294 00000+0 37238-3 0 9995 2 39446 97.8662 75.1211 0050947 121.5611 239.0600 14.96614316670278 BRITE-CA1 (TORONTO) 1 40020U 14033L 26119.93220216 .00001076 00000+0 16866-3 0 9994 2 40020 97.9664 249.7720 0079988 71.8270 289.1626 14.72605802635111 DUCHIFAT-1 1 40021U 14033M 26119.40363011 .00063241 00000+0 89083-3 0 9991 2 40021 98.0527 172.0590 0004514 222.9500 137.1401 15.56421456648147 NANOSATC-BR1 1 40024U 14033Q 26119.96036072 .00018102 00000+0 62684-3 0 9993 2 40024 98.0763 148.1267 0003283 23.5728 336.5661 15.29923194646604 QB50P1 1 40025U 14033R 26119.96026908 .00010084 00000+0 50609-3 0 9996 2 40025 98.0980 127.7514 0009775 40.9513 319.2451 15.17494028645713 QB50P2 1 40032U 14033Y 26119.94588668 .00008152 00000+0 44606-3 0 9991 2 40032 98.0746 113.8502 0007052 353.9846 6.1298 15.14525357645365 PERSEUS-M2 1 40037U 14033AD 26119.95381378 .00002366 00000+0 21957-3 0 9991 2 40037 97.9937 69.5284 0013663 97.8302 262.4469 14.95362968643573 PERSEUS-M1 1 40039U 14033AF 26119.79669127 .00002453 00000+0 22680-3 0 9997 2 40039 97.9619 63.1501 0013255 96.8731 263.3997 14.95468400643402 POLYITAN-1 1 40042U 14033AJ 26119.60019321 .00017711 00000+0 58265-3 0 9997 2 40042 98.0984 141.3249 0005791 329.3941 30.6960 15.31581595646156 TIGRISAT 1 40043U 14033AK 26119.93973927 .00002447 00000+0 28775-3 0 9998 2 40043 97.7765 271.0806 0048387 231.8217 127.8634 14.84953340638461 AEROCUBE 6A 1 40045U 14033AM 26119.92391883 .00007404 00000+0 62947-3 0 9991 2 40045 97.7179 287.4177 0039291 175.8795 184.2758 14.97537918639396 AEROCUBE 6B 1 40046U 14033AN 26119.43856829 .00006226 00000+0 51176-3 0 9997 2 40046 97.7178 286.6320 0037196 168.8154 191.3905 14.98964631639457 CANX-4 1 40055U 14034C 26119.58146502 .00001039 00000+0 14081-3 0 9995 2 40055 98.3189 353.0963 0013090 161.8923 198.2757 14.81173984637333 CANX-5 1 40056U 14034D 26119.64801248 .00001037 00000+0 14044-3 0 9995 2 40056 98.3192 353.2061 0013094 161.8618 198.3063 14.81191114628150 UKUBE-1 1 40074U 14037F 26119.96074260 .00009036 00000+0 51913-3 0 9992 2 40074 98.4239 118.1983 0001452 41.9860 318.1479 15.12779456641262 BRITE-PL2 (HEWELIUSZ) 1 40119U 14049B 26119.76501664 .00001991 00000+0 19016-3 0 9996 2 40119 97.9034 231.4138 0012781 269.8852 90.0904 14.94408513634217 AEROCUBE 5C 1 40965U 15058B 26119.95526431 .00003731 00000+0 33405-3 0 9998 2 40965 64.7688 52.6026 0129606 82.2070 279.3734 14.91166427358461 AEROCUBE 7 1 40966U 15058C 26119.95398682 .00005487 00000+0 44372-3 0 9999 2 40966 64.7645 35.8467 0119483 80.9739 280.4875 14.95330006358746 FOX-1A (AO-85) 1 40967U 15058D 26119.85284493 .00003966 00000+0 35961-3 0 9997 2 40967 64.7755 69.1552 0128613 75.5325 286.0017 14.90669790106369 SINOD-D 1 1 40968U 15058E 26119.93766267 .00005722 00000+0 46251-3 0 9997 2 40968 64.7767 49.9634 0117133 72.3640 289.0225 14.95501997109445 SNAP-3 ALICE 1 40970U 15058G 26119.68950452 .00081602 00000+0 13383-2 0 9993 2 40970 64.7530 270.3446 0031568 41.2481 319.1037 15.51412930109348 LMRST-SAT 1 40971U 15058H 26119.93017711 .00003743 00000+0 34208-3 0 9994 2 40971 64.7765 65.1623 0130467 77.5230 284.0443 14.90297914106363 SNAP-3 EDDIE 1 40972U 15058J 26119.78041084 .00084911 00000+0 13345-2 0 9992 2 40972 64.7457 261.0998 0032250 44.8471 315.5269 15.52552449111491 PROPCUBE 3 1 40973U 15058K 26119.94949138 .00004752 00000+0 39815-3 0 9994 2 40973 64.7705 43.2074 0122716 79.0731 282.4161 14.93909118107591 BISONSAT 1 40974U 15058L 26119.93288011 .00013783 00000+0 68651-3 0 9994 2 40974 64.7610 329.5288 0077890 68.7757 292.1664 15.15159943108303 SNAP-3 JIMI 1 40975U 15058M 26119.85204534 .00007317 00000+0 50957-3 0 9990 2 40975 64.7676 12.6412 0104763 75.3652 285.9052 15.01768517106962 PROPCUBE 1 (FLORA) 1 40976U 15058N 26119.30344228 .00003175 00000+0 30399-3 0 9992 2 40976 64.7740 86.7038 0129321 80.0441 281.5237 14.88932502108989 SINOD-D 3 1 40977U 15058P 26119.90573767 .00005191 00000+0 44180-3 0 9994 2 40977 64.7732 66.5403 0117787 77.3775 284.0480 14.93627592107540 HORYU-4 1 41340U 16012D 26119.95042693 .00153194 00000+0 10014-2 0 9999 2 41340 30.9894 66.5536 0006383 275.1954 84.7973 15.74236515563169 RAVAN 1 41849U 16067B 26119.63477335 .00040046 00000+0 70460-3 0 9996 2 41849 97.9956 3.7659 0006464 155.1236 205.0327 15.50347326520165 CELTEE 1 1 41850U 16067C 26119.86925014 .00005525 00000+0 26616-3 0 9992 2 41850 98.0740 343.1431 0002308 74.6743 285.4745 15.19199735518549 OPTICUBE 04 1 41851U 16067D 26119.55768605 .00001974 00000+0 12758-3 0 9996 2 41851 98.0753 329.2978 0014220 283.5438 76.4205 15.09452114517835 AEROCUBE 8D 1 41852U 16067E 26119.56984168 .00007698 00000+0 32384-3 0 9998 2 41852 98.0754 346.0529 0002302 324.6621 35.4461 15.23709574518667 AEROCUBE 8C 1 41853U 16067F 26119.60250391 .00007253 00000+0 30318-3 0 9990 2 41853 98.0623 343.3792 0004347 215.4257 144.6690 15.23945774518669 CORVUS BC2 1 42846U 17042X 26119.89501570 .00003089 00000+0 21580-3 0 9990 2 42846 97.4014 283.1472 0011465 277.9243 82.0683 15.05985432479794 CORVUS BC1 1 42847U 17042Y 26119.96153139 .00002706 00000+0 18878-3 0 9994 2 42847 97.4047 283.9931 0010432 250.7597 109.2502 15.06152693479836 MAKERSAT 0 1 43016U 17073D 26119.62049829 .00023514 00000+0 66495-3 0 9998 2 43016 97.4701 1.8228 0113765 85.7836 275.6396 15.29984042459038 SIRION PATHFINDER-2 1 43759U 18099B 26119.87853105 .00006025 00000+0 33405-3 0 9991 2 43759 97.4298 170.0899 0010517 106.0164 254.2228 15.14098733405314 CORVUS BC4 1 43767U 18099K 26119.68793510 .00004276 00000+0 25184-3 0 9993 2 43767 97.4112 164.0916 0009022 158.6573 201.5036 15.12092537405076 M2 PATHFINDER 1 45727U 20037E 26119.96302142 .00002003 00000+0 14770-3 0 9999 2 45727 97.8152 310.6563 0010673 321.6222 38.4243 15.04457291318248 NETSAT-4 1 46504U 20068U 26119.94178889 .00019107 00000+0 44575-3 0 9993 2 46504 97.8620 124.3678 0007420 123.9455 236.2498 15.42252719308335 NETSAT-3 1 46505U 20068V 26119.90998940 .00019098 00000+0 46437-3 0 9996 2 46505 97.8666 122.6139 0006929 136.4922 223.6871 15.41007020308247 NETSAT-1 1 46506U 20068W 26119.53934987 .00012622 00000+0 39274-3 0 9994 2 46506 97.8748 117.1025 0005656 157.2807 202.8685 15.33445289307842 NETSAT-2 1 46507U 20068X 26119.52277360 .00020781 00000+0 45833-3 0 9992 2 46507 97.8636 123.6507 0005368 142.8047 217.3573 15.43927273308221 GREENCUBE (IO-117) 1 53109U 22080E 26119.47010391 -.00000003 00000+0 00000+0 0 9996 2 53109 70.1461 315.1961 0008895 300.7857 59.1927 6.42583316 88934 SITRO-AIS 5 (KATYS) 1 57176U 23091L 26119.89902930 .00012004 00000+0 43669-3 0 9997 2 57176 97.5097 183.3735 0009945 271.4678 88.5422 15.28351501156964 SITRO-AIS 6 (CHIRKIN) 1 57192U 23091AC 26119.90129570 .00006399 00000+0 25820-3 0 9997 2 57192 97.5103 182.7423 0010287 276.4418 83.5648 15.25109864156926 SITRO-AIS 8 (ANOKHIN) 1 57193U 23091AD 26119.93198314 .00014685 00000+0 49425-3 0 9997 2 57193 97.5092 184.8070 0009187 266.5521 93.4669 15.30846114157068 SITRO-AIS 7 (FARTUSHNIY) 1 57194U 23091AE 26119.89494249 .00005918 00000+0 24109-3 0 9990 2 57194 97.5102 182.5848 0010149 277.6634 82.3450 15.24822581156910 SITRO-AIS 10 (BURDAEV) 1 57199U 23091AK 26119.89789513 .00019743 00000+0 55034-3 0 9998 2 57199 97.5111 189.3501 0005849 234.2723 125.7977 15.36796340157345 SITRO-AIS 9 (SHCHUKIN) 1 57201U 23091AM 26119.90977584 .00018976 00000+0 53664-3 0 9995 2 57201 97.5110 189.1281 0006084 234.9737 125.0936 15.36354036157334 SITRO-AIS 12 (SMIRENNIY) 1 57204U 23091AQ 26119.90936201 .00019456 00000+0 54528-3 0 9993 2 57204 97.5122 189.5649 0005887 227.7350 132.3395 15.36630370157353 SITRO-AIS 11 (SHEFFER) 1 57208U 23091AU 26119.93543011 .00020263 00000+0 56078-3 0 9993 2 57208 97.5120 189.8097 0005821 226.9070 133.1688 15.37016072157377 SITRO-AIS 25 1 59066U 24039R 26119.93012922 .00005824 00000+0 45378-3 0 9999 2 59066 95.3931 201.9389 0147261 136.2484 225.0523 14.93133259117524 SITRO-AIS 26 1 59067U 24039S 26119.92505839 .00006011 00000+0 47028-3 0 9996 2 59067 95.3932 201.8425 0147606 136.7712 224.5212 14.92940040117519 SITRO-AIS 27 1 59068U 24039T 26119.97567654 .00007169 00000+0 55535-3 0 9992 2 59068 95.3929 202.1269 0146821 135.3246 225.9921 14.93345751117545 SITRO-AIS 28 1 59071U 24039U 26119.95423128 .00006057 00000+0 46957-3 0 9994 2 59071 95.3928 202.1571 0146530 135.3209 225.9934 14.93379315117547 GRBBETA 1 60237U 24128C 26119.96385185 .00004477 00000+0 31081-3 0 9996 2 60237 61.9920 25.4060 0046713 124.5197 236.0320 15.06245012 99004 OOV-CUBE (TUBSAT-30) 1 60240U 24128F 26119.94373440 .00002663 00000+0 20993-3 0 9994 2 60240 61.9968 33.7635 0050177 123.1683 237.4236 15.02529245 98867 ROBUSTA-3A (MEDITERRAN*) 1 60243U 24128J 26119.96753052 .00009032 00000+0 53763-3 0 9998 2 60243 61.9887 18.6662 0047385 118.3977 242.1907 15.10916803 99139 LASARSAT 1 62391U 24247Q 26119.21941540 .00026093 00000+0 57714-3 0 9991 2 62391 44.9747 176.7347 0005195 12.7225 347.3794 15.43397306 75743 CROCUBE 1 62394U 24247T 26119.85239015 .00033768 00000+0 70611-3 0 9999 2 62394 44.9709 171.2255 0004810 16.4746 343.6299 15.44936494 75864 FORESAIL-1 PRIME 1 66778U 25276DS 26119.75929268 .00005383 00000+0 26613-3 0 9992 2 66778 97.4218 193.9289 0000806 273.6747 86.4394 15.18249252 23051 KNACKSAT-2 1 67683U 98067XZ 26119.85332384 .00037628 00000+0 53471-3 0 9993 2 67683 51.6295 176.8122 0012619 18.3620 341.7824 15.55930236 12748